User: anonymous   Login
Location: Unspecified
(0.0000°N, 0.0000°E)
Time: 05:25:29
(UTC+00:00)
Language:

N. Korean satellite - Orbit

View from above orbital plane
View from above orbital plane
View from above satellite
View from above satellite

Ground track
Ground track

The orbit data is extracted from the following two-line orbital elements,

1 39026U 12072A   18294.63480369  .00001186  00000-0  46454-4 0  9998
2 39026  97.2111 300.7288 0037336 232.6817 127.1019 15.27126921324952
Epoch (UTC): 21 October 2018 15:14:07
Eccentricity: 0.0037336
inclination: 97.2111°
perigee height: 459 km
apogee height: 510 km
right ascension of ascending node: 300.7288°
argument of perigee: 232.6817°
revolutions per day: 15.27126921
mean anomaly at epoch: 127.1019°
orbit number at epoch: 32495

The dashed part of the orbit path shows where the satellite is in the earth's shadow,  

DLR